Temperature
21 20 19 19 19 18 18 18 18 18 18 17 17 17 17 17 17 16 16 15 15 14 14 14 14 13 13 13 13 13 13 13 14 14 15 15 16 16 17 17 16 16 16
20 20 19 19 19 18 18 18 18 18 18 17 17 17 17 17 16 16 16 15 14 14 13 13 13 13 13 13 13 13 13 13 13 14 14 15 16 17 17 17 17 16 16
20 20 20 20 19 19 19 18 18 18 18 17 17 17 16 16 16 16 15 15 14 14 13 13 12 12 12 12 12 13 12 12 13 13 14 14 15 15 16 16 16 16 16
21 21 20 20 19 19 19 19 18 18 18 17 17 16 16 16 16 16 15 15 14 13 13 12 12 12 12 12 12 12 12 12 12 13 13 14 14 14 14 15 15 16 16
22 21 21 21 20 20 19 19 18 18 18 17 17 16 16 16 15 15 15 14 14 13 13 13 12 12 11 11 11 12 12 12 12 12 12 13 13 13 13 14 15 15 15
23 22 22 21 21 20 20 19 18 18 18 17 16 16 15 15 15 15 14 14 14 14 13 13 12 12 11 11 11 11 11 11 11 11 12 12 12 13 13 13 14 14 15
24 23 22 22 21 21 20 19 19 18 17 17 16 15 15 15 14 14 14 13 13 13 13 13 12 12 11 11 11 11 11 11 11 11 11 11 11 12 12 13 13 13 14
24 24 23 22 22 21 20 20 19 18 17 16 16 15 15 14 14 14 14 13 13 13 13 12 12 11 11 11 11 11 11 11 11 11 11 11 11 11 12 12 12 13 13
25 24 23 23 22 21 20 20 18 17 17 16 16 15 15 14 14 14 13 13 13 12 12 12 12 11 11 11 11 11 11 11 11 11 11 11 11 11 11 12 12 12 12
25 25 24 23 22 21 20 19 18 17 17 16 15 15 15 14 14 13 13 12 12 12 12 12 11 11 11 11 11 11 11 11 11 11 11 11 11 11 11 11 11 12 12
26 25 24 23 22 21 20 19 18 17 16 16 15 15 14 14 13 13 13 12 12 12 12 11 11 11 11 11 11 11 11 11 11 10 10 11 11 11 11 11 11 11 12
26 25 24 23 22 21 20 19 18 17 17 16 15 15 14 14 13 13 12 12 12 12 11 11 11 11 11 11 11 11 11 10 10 10 10 10 10 10 10 10 10 11 11
26 25 24 22 21 21 20 19 18 17 17 16 16 15 14 14 13 13 12 12 12 12 12 11 11 11 11 11 11 11 10 10 10 10 10 10 10 10 10 10 10 10 11
26 25 23 22 21 20 20 19 18 18 17 16 16 15 14 14 13 13 12 12 12 12 12 11 11 11 11 11 11 11 10 10 10 10 10 10 10 10 10 10 10 10 10
25 24 23 22 21 20 19 19 18 17 17 16 16 15 15 14 13 13 13 12 12 12 12 11 11 11 11 11 11 11 10 10 10 10 10 10 10 10 10 10 10 10 10
25 24 23 22 21 20 19 18 18 17 17 16 15 15 14 14 14 13 13 13 12 12 12 12 11 11 11 11 11 11 10 10 10 10 10 10 9 10 10 10 10 10 10
25 24 23 22 21 20 19 18 18 17 16 16 15 15 15 14 14 13 13 13 12 12 12 12 11 11 11 11 11 10 10 10 10 10 9 9 9 9 10 10 9 10 9
25 24 23 22 21 20 19 18 18 17 17 16 16 15 15 14 14 14 13 13 13 12 12 12 12 11 11 11 10 10 10 10 10 10 9 9 9 9 9 9 9 9 9
25 24 23 22 21 20 19 18 18 17 17 16 16 15 15 15 14 14 13 13 13 13 12 12 12 11 11 11 10 10 10 10 9 9 9 9 9 9 9 9 9 9 9
24 23 23 22 21 20 19 19 18 17 17 17 16 16 15 15 14 14 14 13 13 13 12 12 12 11 11 11 11 10 10 9 9 9 9 9 9 9 9 9 9 9 9
23 23 22 22 21 20 19 19 18 17 17 17 16 16 15 15 14 14 14 13 13 12 12 12 12 12 12 11 11 10 10 10 9 9 9 9 9 9 9 8 8 8 8
23 22 22 21 20 20 19 19 18 18 17 17 16 16 15 15 14 14 14 13 13 12 12 12 12 12 12 11 11 11 10 10 9 9 9 8 8 8 8 8 8 8 8
22 21 21 20 20 19 19 18 18 17 17 16 16 15 15 15 14 14 13 13 13 12 12 12 12 12 12 11 11 11 10 9 9 9 9 8 8 8 8 8 8 8 8
21 21 20 19 19 18 18 18 17 17 16 16 16 15 15 15 14 14 13 13 13 13 12 12 12 12 12 11 11 10 10 9 9 8 8 8 8 8 8 8 8 8 8
20 20 19 19 18 18 17 17 16 16 16 15 15 15 14 14 14 14 14 13 13 13 13 12 12 12 11 11 11 10 10 9 9 8 8 8 8 8 8 8 8 8 8
18 18 18 18 17 17 17 16 16 15 15 15 14 14 14 14 14 14 14 14 14 13 13 13 12 12 12 11 11 10 10 10 9 9 9 8 8 8 8 8 8 8 8
Wind_Speed
11 10 10 10 10 9 8 7 7 6 3 2 1 1 1 0 1 2 6 4 2 4 4 3 4 4 4 4 5 5 6 6 5 5 6 7 8 7 7 6 5 5 7
10 10 10 10 11 9 8 8 7 7 4 3 1 1 0 1 1 2 3 3 1 2 4 3 4 5 5 5 5 4 4 6 6 5 6 6 6 4 4 3 5 5 2
12 12 11 11 11 10 9 9 8 7 5 3 2 1 0 2 2 1 1 2 1 2 2 3 3 4 5 5 5 4 5 5 6 5 4 4 4 6 4 4 1 1 2
13 13 13 12 12 11 10 8 8 6 5 3 2 2 3 3 2 1 0 1 1 3 3 3 3 3 4 6 6 5 5 5 5 6 5 4 4 3 5 5 4 3 3
14 14 14 12 11 11 11 9 8 7 5 4 3 3 3 3 3 4 3 2 3 4 4 4 2 2 4 5 5 5 5 5 6 5 6 6 4 4 5 6 6 5 3
14 14 13 12 10 10 9 10 9 7 6 5 4 3 3 3 4 5 5 4 3 3 3 3 2 2 3 4 5 5 6 5 6 5 5 6 5 5 5 6 6 6 4
14 13 12 12 10 9 9 9 10 8 7 6 5 3 1 2 5 6 5 3 3 3 2 2 2 2 4 5 5 5 6 6 7 6 5 6 6 5 5 5 6 7 6
12 12 11 10 10 10 9 9 10 8 7 6 4 2 1 3 4 3 4 4 4 4 3 2 3 4 5 6 5 5 6 6 6 7 7 5 6 6 5 5 6 7 7
14 13 13 12 11 10 8 8 9 7 5 4 4 4 4 4 4 3 4 4 3 5 5 4 5 5 5 6 6 6 7 7 7 7 7 6 6 6 6 5 5 6 7
13 13 12 11 10 9 8 8 8 7 5 4 4 4 3 3 4 4 4 4 5 5 5 6 6 6 6 6 6 6 7 7 7 7 8 7 6 6 6 6 6 6 7
13 12 10 10 10 9 9 8 8 7 6 5 4 2 2 3 3 4 5 5 5 5 6 6 6 7 7 7 7 7 8 8 8 8 8 8 8 7 6 6 6 6 6
11 12 12 11 10 9 10 9 9 8 7 6 5 4 4 4 5 6 5 4 5 5 6 6 6 7 8 7 7 8 8 8 8 8 9 8 8 8 7 7 7 7 7
9 10 12 11 9 8 8 9 8 8 7 6 6 5 5 5 5 5 5 5 6 6 6 7 7 7 8 8 8 8 8 8 8 9 9 9 9 9 7 8 8 7 9
9 10 10 10 9 8 7 7 7 6 6 6 5 5 5 5 4 5 5 5 6 6 7 7 7 7 8 8 8 8 7 8 8 9 9 9 9 9 9 8 8 8 8
11 10 10 10 9 8 8 7 7 6 5 5 5 5 4 4 4 5 5 6 6 8 7 7 7 7 8 9 6 5 8 7 8 8 9 10 11 12 10 10 7 7 6
9 11 11 11 10 10 9 8 7 7 7 6 5 5 4 4 5 5 6 6 6 6 6 7 8 8 10 4 3 4 7 8 9 9 9 10 11 13 15 16 15 12 10
7 9 11 10 10 10 9 9 8 7 7 7 6 5 5 5 5 6 5 5 6 6 7 7 8 8 8 9 9 9 7 9 9 10 9 12 13 11 8 10 15 16 17
5 8 10 11 11 10 10 9 9 8 8 8 7 7 6 6 5 5 6 6 5 6 6 7 8 8 10 10 10 10 9 10 10 11 11 11 11 13 10 9 9 9 10
4 6 8 10 10 11 11 10 9 9 9 9 8 7 6 5 5 6 6 6 6 6 7 8 8 9 9 9 11 10 7 9 10 11 11 11 10 11 11 8 9 9 9
5 6 8 8 9 9 10 10 9 9 9 8 7 6 5 6 6 6 6 6 6 7 8 8 8 9 9 9 11 12 8 9 9 8 9 11 10 9 7 7 8 9 9
4 6 6 7 8 8 8 9 9 9 8 6 6 6 6 6 7 7 6 6 7 8 9 9 9 10 11 11 13 13 8 8 8 8 7 6 4 6 8 8 8 10 9
4 5 5 6 6 7 7 7 7 6 5 5 6 6 6 7 7 6 7 7 8 9 9 10 10 9 8 9 10 14 14 11 8 8 8 6 4 6 9 9 11 12 10
3 3 4 5 6 6 6 7 6 5 5 6 6 6 6 6 7 7 8 8 8 9 9 8 7 6 4 4 9 12 14 14 10 9 11 11 12 11 11 15 16 12 9
1 2 3 3 4 5 6 6 5 5 5 6 6 6 7 8 8 8 9 9 8 7 7 7 6 5 5 3 1 3 6 9 10 9 10 13 16 14 14 12 10 9 10
4 2 1 1 2 3 4 5 4 5 6 6 6 7 9 10 9 9 9 10 9 9 8 7 6 6 7 3 2 3 5 5 4 5 7 9 9 8 8 9 9 9 9
7 5 3 2 2 2 3 4 4 4 5 6 8 9 8 8 8 8 9 13 15 14 16 15 12 9 10 8 8 8 8 8 5 4 8 10 10 9 9 8 8 8 9
Wind_Direction
141 139 141 141 137 137 140 143 137 138 152 144 150 125 111 85 128 128 109 91 36 17 335 324 349 324 322 337 328 331 321 308 290 287 289 282 265 245 230 227 230 236 238
149 151 155 154 150 151 151 149 154 157 172 139 117 152 68 289 284 77 126 133 96 352 316 24 339 339 338 311 296 297 297 304 312 311 304 300 293 308 265 218 212 222 226
163 164 167 164 160 163 169 172 167 164 171 160 202 266 188 257 269 80 126 108 41 311 316 322 313 328 316 318 337 314 307 305 307 298 299 306 324 336 322 331 293 201 210
169 172 173 174 173 174 176 169 166 167 164 183 225 264 271 293 319 313 64 78 291 268 270 276 295 314 313 313 311 352 332 312 304 303 297 284 301 306 317 320 317 276 237
174 176 178 178 180 181 178 170 163 164 170 194 230 258 293 324 350 4 352 335 273 244 230 230 232 283 288 300 320 320 313 309 305 311 314 309 298 264 265 291 306 301 273
175 177 178 174 180 182 174 170 162 167 177 198 226 233 279 317 322 317 300 290 285 267 224 220 169 267 285 306 308 300 292 286 293 298 301 302 298 294 290 292 298 297 291
175 175 177 174 179 182 176 167 161 166 178 194 211 224 263 294 270 262 280 301 309 315 17 24 25 306 298 289 279 280 277 279 281 282 278 284 292 294 295 294 296 298 298
175 175 178 179 180 180 174 164 157 163 178 193 188 180 237 269 287 355 352 325 312 316 341 322 285 273 273 279 281 282 276 270 267 270 270 274 278 279 280 279 286 292 292
178 180 182 183 181 176 164 158 150 157 175 184 160 190 217 245 294 319 283 283 306 303 326 323 298 279 271 267 268 266 270 275 272 269 268 260 267 271 268 267 268 274 283
181 181 178 177 167 155 143 141 141 150 163 184 198 216 194 219 240 257 279 293 291 290 291 283 285 284 280 271 262 263 262 261 259 257 260 265 267 271 275 272 266 261 267
180 174 166 154 143 144 146 145 147 157 174 200 196 216 234 258 268 264 263 265 270 276 277 276 276 278 276 273 266 263 265 264 263 264 264 258 256 260 269 274 272 266 262
176 166 154 145 151 159 160 162 167 175 184 191 185 199 215 233 248 263 271 276 274 272 273 273 275 276 278 277 273 271 275 272 269 265 265 266 265 255 254 262 269 270 270
164 155 147 151 159 165 166 167 175 181 184 182 183 198 213 230 243 257 268 272 273 275 278 278 277 276 277 276 275 272 271 271 272 271 268 265 263 263 255 254 260 267 270
160 157 149 155 161 163 161 168 182 182 184 181 192 205 216 231 244 255 262 266 270 274 273 272 273 273 275 275 272 274 276 275 274 273 270 267 262 260 258 258 253 257 264
165 163 161 161 163 165 167 178 183 179 182 184 208 218 220 228 241 251 257 259 264 274 277 279 279 277 276 274 281 288 287 291 292 286 280 273 267 258 255 259 257 262 263
177 171 169 167 171 174 179 184 185 179 174 193 216 222 225 236 244 250 254 258 262 270 274 276 279 279 283 291 280 271 291 290 285 283 280 280 273 261 246 242 244 245 253
182 174 173 172 173 178 181 182 183 180 183 196 214 223 226 235 244 262 268 271 273 274 273 274 275 276 277 265 250 246 262 274 275 276 277 280 280 284 269 249 242 243 244
183 172 174 173 175 179 182 183 187 186 193 201 211 220 226 236 241 251 260 264 270 275 276 276 276 274 274 263 241 239 250 267 269 268 267 267 269 274 273 273 263 252 248
175 166 178 181 177 180 180 180 193 194 201 208 211 218 224 234 242 251 257 263 266 269 271 273 270 270 271 255 234 230 258 266 270 270 271 269 267 263 255 256 261 263 262
159 165 178 176 170 176 175 180 195 201 209 212 210 212 218 230 243 252 257 264 265 269 273 272 271 274 275 259 233 221 251 268 276 277 275 273 269 262 241 247 259 264 267
157 164 172 170 167 168 169 185 200 208 210 212 210 211 217 225 236 243 245 252 261 267 270 274 273 269 264 254 231 218 235 260 277 285 288 290 280 252 241 247 258 264 274
167 172 169 161 156 160 171 191 208 211 206 212 219 222 222 238 250 242 246 248 253 261 263 264 266 264 258 245 229 214 220 242 265 276 282 288 279 258 254 254 256 261 266
157 161 165 162 160 165 177 202 211 209 215 221 226 231 236 237 245 251 254 254 251 256 261 266 272 275 274 244 219 213 221 231 244 265 278 287 277 269 262 253 251 253 252
78 121 152 177 184 184 195 211 210 206 219 228 231 235 241 244 243 241 250 256 257 259 265 272 279 288 289 284 214 220 235 240 246 261 274 272 263 255 255 262 252 239 240
27 55 95 188 202 194 204 208 214 211 222 233 242 248 250 250 249 246 244 247 248 248 251 262 269 276 280 271 195 265 285 294 319 318 288 281 274 264 254 249 246 240 234
22 18 9 335 302 252 228 217 213 220 233 247 252 258 260 260 259 258 261 243 238 240 232 234 243 255 255 248 237 244 253 261 266 278 274 275 275 272 268 263 259 250 242
Height
1518 1521 1524 1527 1530 1532 1534 1537 1538 1540 1542 1544 1545 1546 1547 1547 1547 1546 1545 1544 1543 1543 1542 1541 1540 1540 1540 1539 1539 1538 1537 1537 1537 1537 1535 1534 1533 1532 1532 1532 1533 1534 1535
1517 1521 1524 1527 1529 1532 1534 1536 1538 1540 1541 1543 1544 1544 1545 1545 1546 1545 1544 1542 1541 1540 1541 1539 1538 1538 1537 1537 1536 1536 1535 1534 1535 1535 1534 1532 1532 1529 1529 1529 1530 1530 1531
1516 1520 1523 1526 1529 1531 1533 1535 1537 1539 1540 1541 1542 1543 1543 1543 1544 1543 1542 1541 1539 1539 1538 1536 1536 1535 1535 1535 1534 1534 1533 1532 1532 1533 1533 1532 1530 1528 1527 1527 1528 1528 1528
1515 1518 1522 1525 1527 1530 1532 1534 1535 1537 1538 1539 1540 1541 1541 1542 1542 1541 1540 1538 1537 1536 1535 1534 1533 1533 1532 1532 1532 1532 1530 1530 1530 1530 1531 1531 1530 1529 1527 1526 1526 1526 1526
1513 1516 1520 1523 1526 1529 1531 1532 1533 1535 1536 1537 1537 1538 1539 1539 1538 1537 1537 1536 1535 1534 1533 1532 1531 1530 1530 1530 1529 1528 1528 1527 1528 1527 1527 1527 1527 1527 1527 1525 1524 1524 1524
1510 1514 1518 1521 1525 1527 1529 1530 1531 1533 1534 1534 1535 1535 1536 1535 1535 1534 1533 1533 1533 1533 1532 1531 1529 1528 1528 1527 1526 1526 1525 1525 1524 1524 1524 1524 1525 1525 1524 1523 1522 1521 1521
1508 1512 1516 1519 1522 1525 1527 1528 1529 1530 1531 1532 1533 1533 1533 1532 1532 1532 1532 1531 1531 1531 1530 1529 1527 1526 1525 1524 1523 1523 1522 1522 1521 1521 1521 1521 1521 1521 1521 1521 1520 1519 1518
1505 1509 1513 1516 1519 1522 1524 1526 1527 1528 1529 1530 1530 1530 1530 1530 1530 1530 1529 1528 1528 1528 1527 1525 1524 1523 1522 1521 1521 1520 1519 1519 1518 1518 1518 1517 1517 1517 1518 1518 1517 1516 1514
1502 1506 1510 1513 1516 1519 1521 1523 1525 1526 1527 1528 1528 1528 1527 1527 1527 1526 1526 1526 1525 1524 1524 1522 1521 1520 1519 1518 1517 1516 1516 1515 1515 1514 1514 1513 1513 1513 1513 1514 1514 1514 1511
1499 1503 1507 1510 1514 1516 1519 1521 1522 1524 1525 1525 1525 1526 1525 1525 1524 1524 1523 1522 1521 1521 1520 1519 1517 1516 1515 1515 1514 1513 1512 1512 1511 1510 1510 1509 1509 1509 1509 1509 1509 1509 1508
1495 1499 1504 1508 1511 1514 1516 1518 1520 1521 1522 1522 1523 1523 1522 1522 1521 1521 1520 1519 1518 1517 1516 1515 1514 1513 1512 1511 1510 1509 1508 1508 1507 1506 1505 1505 1504 1504 1504 1504 1504 1504 1503
1492 1496 1501 1505 1509 1512 1514 1516 1517 1518 1519 1520 1520 1520 1519 1519 1518 1518 1517 1516 1515 1514 1513 1512 1511 1509 1508 1507 1506 1505 1504 1503 1502 1502 1501 1500 1500 1499 1498 1498 1498 1498 1498
1490 1494 1498 1502 1506 1510 1512 1513 1515 1516 1517 1517 1517 1517 1516 1516 1515 1514 1514 1513 1512 1511 1509 1508 1507 1506 1504 1503 1502 1501 1500 1499 1497 1496 1496 1495 1494 1493 1493 1493 1492 1492 1493
1488 1493 1496 1500 1504 1507 1509 1511 1512 1513 1514 1514 1514 1514 1513 1513 1512 1511 1510 1509 1508 1507 1506 1504 1503 1501 1500 1499 1498 1496 1495 1494 1492 1491 1490 1489 1488 1488 1487 1487 1487 1487 1487
1486 1490 1494 1498 1501 1504 1506 1507 1509 1510 1510 1510 1511 1510 1510 1510 1509 1508 1507 1506 1505 1503 1502 1501 1499 1498 1496 1495 1494 1492 1491 1489 1487 1485 1484 1483 1482 1482 1481 1481 1481 1481 1481
1483 1487 1491 1495 1498 1500 1502 1504 1505 1506 1506 1506 1507 1507 1507 1506 1505 1504 1503 1502 1501 1500 1498 1496 1495 1493 1492 1491 1489 1487 1485 1483 1481 1479 1477 1476 1476 1475 1475 1474 1474 1475 1475
1481 1484 1487 1491 1493 1496 1498 1500 1501 1502 1503 1503 1503 1503 1503 1502 1502 1501 1500 1498 1497 1495 1494 1492 1490 1488 1487 1485 1483 1482 1479 1477 1475 1473 1471 1469 1469 1469 1469 1468 1467 1467 1467
1478 1481 1484 1487 1490 1492 1494 1496 1497 1498 1498 1499 1499 1499 1499 1498 1498 1496 1495 1494 1492 1491 1489 1487 1485 1483 1482 1480 1478 1476 1474 1471 1469 1467 1465 1464 1463 1462 1462 1461 1461 1460 1460
1476 1478 1481 1483 1486 1488 1490 1491 1493 1494 1494 1494 1495 1495 1494 1494 1493 1492 1490 1489 1487 1486 1484 1482 1480 1478 1477 1475 1473 1471 1468 1465 1463 1462 1460 1459 1457 1456 1455 1455 1454 1453 1453
1474 1475 1478 1480 1482 1484 1485 1487 1488 1489 1490 1490 1490 1490 1490 1489 1488 1487 1486 1484 1483 1481 1479 1477 1476 1474 1471 1470 1467 1466 1463 1460 1458 1457 1455 1454 1452 1451 1450 1449 1448 1447 1446
1471 1473 1474 1476 1478 1480 1481 1482 1484 1485 1486 1486 1486 1486 1485 1484 1483 1482 1481 1479 1478 1476 1474 1472 1470 1468 1466 1464 1462 1460 1458 1456 1453 1451 1450 1448 1446 1445 1444 1442 1441 1440 1440
1469 1470 1472 1473 1474 1475 1477 1478 1479 1481 1482 1482 1482 1481 1480 1479 1479 1477 1476 1474 1472 1470 1468 1466 1464 1463 1461 1459 1456 1455 1453 1451 1448 1446 1444 1442 1440 1439 1437 1436 1435 1434 1433
1466 1467 1469 1470 1472 1473 1474 1475 1475 1477 1477 1477 1477 1476 1475 1474 1473 1472 1470 1469 1467 1465 1463 1462 1460 1458 1457 1454 1451 1449 1447 1445 1442 1440 1438 1436 1434 1432 1430 1429 1428 1427 1426
1464 1465 1467 1468 1469 1470 1470 1471 1472 1472 1472 1472 1471 1470 1469 1468 1467 1466 1465 1463 1462 1460 1459 1457 1455 1453 1451 1449 1446 1444 1441 1439 1436 1434 1432 1430 1428 1426 1424 1422 1421 1420 1419
1464 1465 1465 1466 1467 1467 1467 1468 1468 1468 1467 1467 1466 1464 1463 1462 1461 1459 1458 1456 1455 1454 1452 1451 1449 1447 1445 1443 1441 1439 1436 1434 1431 1428 1426 1424 1422 1420 1418 1416 1415 1414 1413
1465 1465 1465 1466 1466 1466 1465 1465 1465 1464 1463 1462 1461 1460 1458 1456 1455 1453 1451 1449 1448 1446 1445 1444 1443 1440 1439 1437 1435 1433 1430 1428 1426 1423 1420 1418 1416 1414 1412 1411 1409 1408 1407